QPF
0.00 0.00 0.00 0.00 0.00 0.00 0.00 0.01 0.02 0.01 0.01 0.02 0.02 0.02 0.03 0.03 0.03 0.02 0.02 0.03 0.04 0.04 0.07 0.05 0.06 0.06 0.07 0.08 0.07 0.07 0.06 0.06 0.06 0.05 0.05 0.05 0.04 0.03 0.03 0.04 0.04 0.03 0.03
0.00 0.00 0.00 0.00 0.00 0.00 0.01 0.01 0.01 0.01 0.01 0.02 0.02 0.02 0.03 0.03 0.03 0.03 0.02 0.03 0.04 0.06 0.07 0.07 0.07 0.07 0.07 0.07 0.07 0.07 0.07 0.06 0.06 0.06 0.07 0.06 0.05 0.03 0.02 0.02 0.03 0.03 0.03
0.00 0.00 0.00 0.00 0.00 0.00 0.00 0.00 0.01 0.01 0.02 0.02 0.02 0.02 0.03 0.03 0.03 0.04 0.04 0.03 0.03 0.05 0.06 0.05 0.06 0.06 0.06 0.06 0.06 0.07 0.06 0.07 0.07 0.06 0.07 0.06 0.06 0.05 0.04 0.03 0.03 0.04 0.04
0.00 0.00 0.00 0.00 0.00 0.00 0.00 0.00 0.01 0.01 0.01 0.02 0.03 0.03 0.04 0.05 0.05 0.05 0.04 0.03 0.02 0.05 0.09 0.07 0.05 0.05 0.04 0.05 0.04 0.05 0.06 0.07 0.08 0.07 0.05 0.05 0.05 0.05 0.05 0.03 0.03 0.03 0.04
0.00 0.00 0.00 0.00 0.00 0.00 0.00 0.00 0.00 0.01 0.01 0.02 0.03 0.04 0.05 0.05 0.04 0.04 0.04 0.04 0.04 0.08 0.09 0.05 0.04 0.04 0.03 0.04 0.04 0.05 0.05 0.05 0.06 0.09 0.07 0.06 0.04 0.05 0.04 0.03 0.04 0.03 0.03
0.00 0.00 0.00 0.00 0.00 0.00 0.00 0.00 0.00 0.00 0.01 0.01 0.02 0.03 0.04 0.03 0.03 0.03 0.03 0.03 0.05 0.06 0.03 0.02 0.03 0.03 0.03 0.03 0.04 0.05 0.05 0.05 0.06 0.08 0.07 0.07 0.07 0.05 0.04 0.03 0.04 0.04 0.04
0.00 0.00 0.00 0.00 0.00 0.00 0.00 0.00 0.00 0.00 0.00 0.01 0.01 0.01 0.01 0.01 0.02 0.02 0.02 0.03 0.04 0.04 0.03 0.03 0.03 0.03 0.03 0.03 0.03 0.04 0.04 0.05 0.06 0.06 0.06 0.07 0.08 0.07 0.05 0.04 0.03 0.03 0.03
0.00 0.00 0.00 0.00 0.00 0.00 0.00 0.00 0.00 0.00 0.01 0.01 0.01 0.01 0.01 0.01 0.01 0.01 0.02 0.02 0.03 0.03 0.02 0.01 0.01 0.02 0.03 0.02 0.04 0.03 0.04 0.04 0.04 0.05 0.07 0.07 0.07 0.08 0.07 0.06 0.05 0.04 0.04
0.00 0.00 0.00 0.00 0.00 0.00 0.00 0.00 0.00 0.01 0.01 0.01 0.01 0.01 0.01 0.01 0.01 0.01 0.02 0.01 0.02 0.01 0.01 0.01 0.01 0.02 0.02 0.02 0.03 0.03 0.03 0.03 0.04 0.04 0.05 0.06 0.06 0.07 0.07 0.08 0.08 0.07 0.06
0.00 0.00 0.00 0.00 0.00 0.00 0.00 0.00 0.01 0.01 0.01 0.01 0.01 0.01 0.01 0.01 0.01 0.01 0.02 0.02 0.02 0.02 0.02 0.01 0.01 0.01 0.01 0.01 0.03 0.02 0.02 0.03 0.03 0.03 0.03 0.04 0.04 0.04 0.05 0.07 0.07 0.07 0.06
0.00 0.00 0.00 0.00 0.00 0.00 0.00 0.00 0.01 0.01 0.01 0.01 0.01 0.01 0.01 0.01 0.02 0.02 0.02 0.02 0.02 0.02 0.02 0.01 0.01 0.00 0.01 0.02 0.02 0.02 0.01 0.02 0.03 0.03 0.02 0.04 0.04 0.03 0.04 0.04 0.04 0.04 0.05
0.00 0.00 0.00 0.00 0.00 0.00 0.00 0.00 0.00 0.01 0.01 0.01 0.01 0.01 0.01 0.01 0.02 0.02 0.03 0.03 0.02 0.02 0.02 0.01 0.01 0.00 0.01 0.01 0.01 0.01 0.01 0.02 0.02 0.02 0.02 0.03 0.03 0.04 0.04 0.04 0.04 0.04 0.04
0.00 0.00 0.00 0.00 0.00 0.01 0.01 0.00 0.00 0.00 0.00 0.01 0.02 0.02 0.02 0.02 0.02 0.03 0.04 0.03 0.02 0.02 0.02 0.02 0.02 0.01 0.01 0.01 0.01 0.01 0.01 0.01 0.01 0.01 0.01 0.02 0.03 0.04 0.04 0.04 0.04 0.04 0.04
0.00 0.00 0.00 0.00 0.00 0.01 0.01 0.00 0.00 0.00 0.01 0.01 0.02 0.03 0.03 0.02 0.02 0.02 0.03 0.03 0.02 0.02 0.01 0.01 0.01 0.01 0.01 0.02 0.02 0.01 0.01 0.01 0.01 0.01 0.01 0.01 0.02 0.04 0.04 0.03 0.03 0.03 0.04
0.00 0.00 0.00 0.00 0.00 0.01 0.02 0.02 0.01 0.00 0.01 0.01 0.02 0.03 0.02 0.02 0.02 0.02 0.03 0.02 0.01 0.01 0.00 0.00 0.00 0.01 0.01 0.01 0.01 0.01 0.01 0.01 0.01 0.01 0.01 0.01 0.01 0.02 0.02 0.02 0.03 0.04 0.04
0.00 0.00 0.01 0.01 0.01 0.02 0.02 0.02 0.01 0.00 0.01 0.01 0.01 0.01 0.02 0.02 0.02 0.02 0.02 0.02 0.03 0.02 0.00 0.00 0.00 0.01 0.01 0.01 0.01 0.01 0.01 0.01 0.01 0.02 0.03 0.03 0.03 0.02 0.01 0.01 0.02 0.03 0.04
0.00 0.00 0.00 0.01 0.01 0.01 0.02 0.02 0.01 0.01 0.01 0.02 0.01 0.01 0.01 0.02 0.02 0.02 0.01 0.02 0.03 0.02 0.01 0.00 0.00 0.01 0.00 0.01 0.01 0.01 0.01 0.01 0.01 0.01 0.02 0.02 0.02 0.02 0.02 0.02 0.02 0.02 0.03
0.00 0.00 0.00 0.01 0.01 0.01 0.01 0.01 0.01 0.01 0.01 0.01 0.01 0.02 0.02 0.02 0.02 0.02 0.02 0.02 0.02 0.01 0.01 0.01 0.00 0.00 0.01 0.01 0.01 0.01 0.00 0.01 0.01 0.01 0.01 0.02 0.02 0.02 0.03 0.02 0.02 0.02 0.02
0.01 0.01 0.01 0.01 0.02 0.02 0.02 0.02 0.02 0.01 0.01 0.01 0.02 0.03 0.03 0.03 0.03 0.03 0.02 0.02 0.01 0.01 0.01 0.01 0.00 0.00 0.01 0.01 0.01 0.00 0.00 0.00 0.00 0.00 0.01 0.01 0.02 0.02 0.02 0.02 0.02 0.02 0.02
0.01 0.01 0.01 0.01 0.01 0.01 0.01 0.01 0.01 0.01 0.01 0.01 0.01 0.01 0.02 0.03 0.04 0.04 0.04 0.02 0.02 0.01 0.01 0.00 0.00 0.00 0.00 0.00 0.01 0.01 0.00 0.00 0.00 0.00 0.01 0.02 0.02 0.02 0.02 0.03 0.03 0.02 0.02
0.01 0.01 0.01 0.01 0.01 0.01 0.01 0.01 0.01 0.01 0.01 0.01 0.01 0.01 0.01 0.02 0.03 0.03 0.03 0.02 0.02 0.01 0.01 0.01 0.00 0.00 0.00 0.01 0.01 0.01 0.01 0.00 0.00 0.00 0.01 0.02 0.03 0.03 0.02 0.02 0.02 0.01 0.01
0.01 0.01 0.01 0.01 0.01 0.01 0.01 0.01 0.01 0.01 0.01 0.01 0.01 0.02 0.02 0.02 0.02 0.02 0.02 0.02 0.03 0.03 0.02 0.01 0.00 0.00 0.01 0.01 0.01 0.01 0.01 0.01 0.01 0.01 0.01 0.02 0.02 0.02 0.02 0.01 0.01 0.01 0.01
0.01 0.00 0.00 0.01 0.01 0.01 0.01 0.02 0.02 0.02 0.02 0.01 0.01 0.02 0.03 0.03 0.03 0.03 0.03 0.03 0.03 0.03 0.02 0.01 0.00 0.00 0.00 0.01 0.01 0.01 0.02 0.02 0.01 0.02 0.01 0.01 0.01 0.01 0.01 0.01 0.01 0.01 0.01
0.01 0.01 0.01 0.01 0.01 0.02 0.01 0.02 0.02 0.02 0.02 0.01 0.01 0.02 0.04 0.05 0.05 0.03 0.02 0.02 0.03 0.03 0.03 0.02 0.01 0.01 0.01 0.01 0.01 0.01 0.01 0.01 0.01 0.01 0.01 0.01 0.01 0.01 0.01 0.01 0.02 0.02 0.02
0.00 0.01 0.01 0.01 0.01 0.01 0.01 0.01 0.01 0.01 0.01 0.01 0.01 0.01 0.03 0.05 0.04 0.03 0.02 0.02 0.02 0.03 0.03 0.03 0.03 0.02 0.01 0.01 0.01 0.00 0.00 0.01 0.01 0.01 0.01 0.01 0.01 0.00 0.01 0.01 0.01 0.01 0.01
0.01 0.01 0.02 0.02 0.02 0.01 0.01 0.01 0.01 0.01 0.02 0.02 0.03 0.03 0.03 0.03 0.03 0.02 0.02 0.02 0.02 0.02 0.03 0.03 0.03 0.02 0.01 0.01 0.00 0.00 0.00 0.00 0.01 0.01 0.01 0.00 0.00 0.01 0.00 0.00 0.00 0.01 0.01
MSLP
1010.00 1010.30 1010.60 1010.90 1011.20 1011.52 1011.84 1012.18 1012.53 1012.87 1013.20 1013.49 1013.74 1013.95 1014.12 1014.26 1014.39 1014.52 1014.66 1014.82 1014.99 1015.18 1015.39 1015.63 1015.88 1016.15 1016.43 1016.73 1017.03 1017.30 1017.54 1017.71 1017.79 1017.79 1017.71 1017.55 1017.35 1017.12 1016.91 1016.74 1016.62 1016.57 1016.59
1009.22 1009.61 1010.01 1010.40 1010.78 1011.15 1011.52 1011.89 1012.27 1012.65 1013.01 1013.34 1013.63 1013.87 1014.05 1014.18 1014.27 1014.34 1014.41 1014.49 1014.61 1014.77 1014.98 1015.23 1015.52 1015.84 1016.17 1016.51 1016.84 1017.13 1017.37 1017.55 1017.64 1017.65 1017.58 1017.44 1017.24 1017.01 1016.77 1016.53 1016.33 1016.18 1016.09
1008.30 1008.78 1009.27 1009.76 1010.22 1010.65 1011.06 1011.46 1011.86 1012.26 1012.66 1013.03 1013.36 1013.63 1013.83 1013.96 1014.02 1014.05 1014.08 1014.12 1014.20 1014.34 1014.55 1014.82 1015.14 1015.50 1015.87 1016.23 1016.57 1016.86 1017.10 1017.26 1017.36 1017.38 1017.34 1017.23 1017.06 1016.85 1016.60 1016.34 1016.08 1015.84 1015.66
1007.26 1007.82 1008.41 1008.98 1009.52 1010.01 1010.46 1010.89 1011.31 1011.74 1012.17 1012.58 1012.95 1013.27 1013.50 1013.65 1013.72 1013.75 1013.75 1013.77 1013.83 1013.97 1014.18 1014.47 1014.82 1015.20 1015.58 1015.94 1016.27 1016.53 1016.74 1016.89 1016.97 1017.01 1016.99 1016.93 1016.81 1016.64 1016.42 1016.15 1015.87 1015.58 1015.30
1006.15 1006.77 1007.45 1008.11 1008.72 1009.27 1009.75 1010.21 1010.65 1011.10 1011.56 1012.01 1012.44 1012.81 1013.10 1013.30 1013.41 1013.45 1013.47 1013.49 1013.56 1013.70 1013.92 1014.22 1014.57 1014.95 1015.32 1015.66 1015.94 1016.16 1016.33 1016.44 1016.51 1016.55 1016.57 1016.55 1016.49 1016.38 1016.21 1015.98 1015.69 1015.36 1015.03
1005.02 1005.70 1006.45 1007.18 1007.85 1008.44 1008.95 1009.43 1009.89 1010.37 1010.86 1011.36 1011.85 1012.29 1012.65 1012.92 1013.08 1013.17 1013.22 1013.27 1013.35 1013.50 1013.73 1014.02 1014.37 1014.73 1015.06 1015.36 1015.59 1015.75 1015.86 1015.93 1015.98 1016.03 1016.08 1016.11 1016.12 1016.09 1015.98 1015.79 1015.52 1015.18 1014.81
1003.95 1004.66 1005.45 1006.23 1006.94 1007.56 1008.09 1008.59 1009.06 1009.56 1010.09 1010.65 1011.20 1011.71 1012.15 1012.49 1012.72 1012.87 1012.96 1013.03 1013.14 1013.29 1013.52 1013.81 1014.13 1014.46 1014.76 1015.00 1015.17 1015.28 1015.34 1015.38 1015.41 1015.46 1015.54 1015.63 1015.71 1015.75 1015.71 1015.58 1015.34 1015.01 1014.61
1003.02 1003.73 1004.53 1005.31 1006.03 1006.66 1007.20 1007.70 1008.19 1008.71 1009.27 1009.87 1010.48 1011.06 1011.57 1011.97 1012.27 1012.47 1012.60 1012.71 1012.83 1012.99 1013.21 1013.48 1013.79 1014.09 1014.35 1014.55 1014.68 1014.75 1014.77 1014.78 1014.81 1014.87 1014.98 1015.12 1015.26 1015.36 1015.39 1015.32 1015.12 1014.81 1014.41
1002.29 1002.96 1003.72 1004.48 1005.17 1005.77 1006.30 1006.79 1007.28 1007.82 1008.41 1009.04 1009.69 1010.32 1010.89 1011.35 1011.69 1011.93 1012.10 1012.22 1012.35 1012.52 1012.74 1013.00 1013.29 1013.58 1013.82 1014.01 1014.12 1014.17 1014.18 1014.18 1014.22 1014.29 1014.43 1014.60 1014.79 1014.95 1015.03 1015.00 1014.84 1014.56 1014.17
1001.82 1002.42 1003.09 1003.77 1004.39 1004.94 1005.42 1005.89 1006.37 1006.91 1007.51 1008.17 1008.85 1009.51 1010.11 1010.60 1010.97 1011.24 1011.42 1011.56 1011.70 1011.88 1012.10 1012.37 1012.66 1012.95 1013.21 1013.40 1013.53 1013.59 1013.61 1013.63 1013.67 1013.77 1013.92 1014.12 1014.33 1014.52 1014.63 1014.64 1014.51 1014.26 1013.89
1001.66 1002.13 1002.68 1003.22 1003.73 1004.19 1004.61 1005.03 1005.49 1006.02 1006.62 1007.29 1007.98 1008.66 1009.26 1009.77 1010.15 1010.42 1010.61 1010.77 1010.92 1011.11 1011.35 1011.64 1011.96 1012.29 1012.58 1012.81 1012.97 1013.07 1013.13 1013.17 1013.23 1013.34 1013.49 1013.70 1013.91 1014.11 1014.24 1014.26 1014.16 1013.92 1013.58
1001.77 1002.09 1002.47 1002.86 1003.22 1003.55 1003.89 1004.25 1004.67 1005.19 1005.79 1006.46 1007.15 1007.82 1008.42 1008.92 1009.30 1009.58 1009.78 1009.94 1010.11 1010.32 1010.59 1010.93 1011.29 1011.67 1012.01 1012.30 1012.52 1012.67 1012.76 1012.84 1012.92 1013.03 1013.18 1013.37 1013.58 1013.76 1013.88 1013.90 1013.81 1013.60 1013.28
1002.13 1002.28 1002.47 1002.66 1002.86 1003.06 1003.29 1003.58 1003.97 1004.46 1005.05 1005.71 1006.39 1007.05 1007.65 1008.14 1008.51 1008.79 1009.00 1009.18 1009.38 1009.63 1009.94 1010.32 1010.74 1011.17 1011.58 1011.93 1012.20 1012.40 1012.54 1012.64 1012.73 1012.84 1012.97 1013.14 1013.32 1013.48 1013.58 1013.60 1013.51 1013.32 1013.03
1002.66 1002.63 1002.62 1002.62 1002.64 1002.70 1002.82 1003.05 1003.39 1003.86 1004.43 1005.08 1005.75 1006.40 1006.98 1007.46 1007.84 1008.12 1008.34 1008.55 1008.79 1009.08 1009.44 1009.86 1010.34 1010.82 1011.28 1011.68 1012.00 1012.23 1012.40 1012.52 1012.62 1012.72 1012.84 1012.98 1013.13 1013.27 1013.35 1013.37 1013.29 1013.12 1012.86
1003.29 1003.09 1002.89 1002.70 1002.55 1002.47 1002.49 1002.64 1002.94 1003.38 1003.94 1004.57 1005.23 1005.86 1006.43 1006.91 1007.28 1007.58 1007.83 1008.07 1008.34 1008.67 1009.08 1009.54 1010.05 1010.57 1011.06 1011.49 1011.83 1012.09 1012.28 1012.40 1012.51 1012.61 1012.72 1012.84 1012.98 1013.10 1013.18 1013.20 1013.14 1012.99 1012.78
1003.93 1003.57 1003.20 1002.85 1002.55 1002.34 1002.27 1002.35 1002.60 1003.00 1003.53 1004.14 1004.77 1005.39 1005.95 1006.42 1006.81 1007.12 1007.40 1007.68 1007.99 1008.36 1008.79 1009.28 1009.80 1010.33 1010.82 1011.25 1011.60 1011.87 1012.06 1012.20 1012.31 1012.41 1012.53 1012.66 1012.80 1012.93 1013.02 1013.06 1013.03 1012.92 1012.74
1004.50 1004.01 1003.50 1003.01 1002.58 1002.27 1002.10 1002.11 1002.30 1002.66 1003.14 1003.71 1004.32 1004.91 1005.45 1005.92 1006.31 1006.66 1006.97 1007.28 1007.62 1008.02 1008.47 1008.96 1009.48 1010.00 1010.47 1010.89 1011.22 1011.48 1011.68 1011.82 1011.95 1012.07 1012.22 1012.38 1012.54 1012.70 1012.83 1012.91 1012.92 1012.85 1012.73
1004.95 1004.37 1003.74 1003.14 1002.61 1002.21 1001.96 1001.89 1002.01 1002.30 1002.72 1003.23 1003.79 1004.34 1004.85 1005.31 1005.72 1006.08 1006.42 1006.77 1007.14 1007.56 1008.02 1008.51 1009.01 1009.50 1009.94 1010.33 1010.64 1010.90 1011.09 1011.26 1011.41 1011.57 1011.76 1011.96 1012.18 1012.39 1012.57 1012.70 1012.76 1012.74 1012.66
1005.25 1004.60 1003.90 1003.22 1002.61 1002.12 1001.79 1001.64 1001.67 1001.87 1002.21 1002.64 1003.12 1003.62 1004.10 1004.54 1004.95 1005.34 1005.71 1006.09 1006.49 1006.93 1007.40 1007.88 1008.37 1008.82 1009.24 1009.60 1009.90 1010.14 1010.35 1010.54 1010.73 1010.94 1011.18 1011.44 1011.72 1011.98 1012.22 1012.39 1012.50 1012.53 1012.49
1005.40 1004.71 1003.97 1003.23 1002.56 1002.00 1001.58 1001.34 1001.28 1001.37 1001.60 1001.93 1002.33 1002.76 1003.19 1003.62 1004.03 1004.43 1004.84 1005.26 1005.70 1006.16 1006.64 1007.13 1007.60 1008.05 1008.45 1008.79 1009.08 1009.33 1009.55 1009.77 1010.00 1010.25 1010.54 1010.85 1011.17 1011.48 1011.75 1011.97 1012.11 1012.18 1012.17
1005.43 1004.73 1003.96 1003.19 1002.47 1001.85 1001.36 1001.02 1000.85 1000.83 1000.94 1001.16 1001.46 1001.81 1002.19 1002.59 1003.01 1003.43 1003.87 1004.34 1004.82 1005.33 1005.84 1006.35 1006.83 1007.28 1007.68 1008.02 1008.32 1008.58 1008.82 1009.06 1009.32 1009.60 1009.91 1010.24 1010.58 1010.90 1011.19 1011.42 1011.58 1011.67 1011.69
1005.37 1004.67 1003.91 1003.13 1002.38 1001.70 1001.14 1000.71 1000.43 1000.30 1000.29 1000.40 1000.60 1000.87 1001.21 1001.58 1002.00 1002.45 1002.93 1003.45 1003.98 1004.54 1005.10 1005.64 1006.16 1006.63 1007.05 1007.41 1007.72 1008.00 1008.25 1008.50 1008.76 1009.04 1009.34 1009.66 1009.98 1010.28 1010.55 1010.77 1010.92 1011.02 1011.05
1005.26 1004.58 1003.83 1003.06 1002.30 1001.60 1000.98 1000.47 1000.10 999.86 999.75 999.75 999.86 1000.07 1000.35 1000.70 1001.12 1001.60 1002.12 1002.69 1003.29 1003.90 1004.51 1005.11 1005.66 1006.17 1006.62 1007.01 1007.34 1007.63 1007.88 1008.12 1008.36 1008.60 1008.86 1009.12 1009.38 1009.63 1009.84 1010.01 1010.14 1010.22 1010.27
1005.12 1004.48 1003.77 1003.02 1002.27 1001.56 1000.91 1000.36 999.91 999.59 999.39 999.31 999.34 999.49 999.73 1000.06 1000.48 1000.97 1001.53 1002.14 1002.78 1003.45 1004.11 1004.76 1005.36 1005.91 1006.39 1006.80 1007.14 1007.43 1007.66 1007.87 1008.06 1008.24 1008.42 1008.59 1008.76 1008.92 1009.05 1009.17 1009.25 1009.31 1009.37
1004.95 1004.37 1003.72 1003.02 1002.31 1001.61 1000.96 1000.38 999.90 999.52 999.26 999.12 999.10 999.19 999.40 999.71 1000.11 1000.61 1001.18 1001.81 1002.48 1003.17 1003.87 1004.55 1005.18 1005.75 1006.25 1006.68 1007.02 1007.29 1007.50 1007.66 1007.78 1007.87 1007.95 1008.03 1008.09 1008.14 1008.19 1008.23 1008.27 1008.31 1008.37
1004.75 1004.25 1003.67 1003.05 1002.39 1001.74 1001.12 1000.55 1000.06 999.66 999.37 999.19 999.13 999.19 999.35 999.63 1000.01 1000.48 1001.03 1001.64 1002.31 1003.00 1003.70 1004.38 1005.01 1005.59 1006.09 1006.50 1006.83 1007.08 1007.24 1007.34 1007.39 1007.40 1007.38 1007.35 1007.32 1007.28 1007.25 1007.23 1007.23 1007.25 1007.30
Thickness
5816 5814 5810 5807 5803 5798 5793 5789 5786 5783 5780 5778 5775 5772 5771 5770 5769 5768 5765 5763 5762 5761 5760 5761 5759 5759 5758 5757 5757 5756 5755 5755 5755 5754 5753 5755 5756 5755 5754 5754 5754 5754 5753
5817 5814 5812 5809 5805 5800 5796 5792 5788 5786 5783 5780 5777 5775 5773 5772 5771 5768 5765 5763 5762 5761 5761 5759 5759 5758 5757 5756 5756 5755 5755 5756 5755 5753 5750 5747 5749 5752 5755 5753 5752 5752 5752
5821 5817 5813 5811 5808 5804 5800 5797 5793 5789 5785 5783 5780 5777 5773 5771 5770 5767 5766 5765 5763 5762 5761 5760 5759 5758 5758 5757 5756 5756 5754 5753 5754 5755 5751 5747 5743 5747 5751 5750 5751 5750 5749
5828 5823 5818 5814 5811 5808 5806 5801 5796 5791 5788 5785 5782 5777 5773 5770 5769 5768 5768 5766 5764 5763 5762 5760 5759 5758 5759 5757 5758 5758 5756 5753 5752 5753 5754 5753 5751 5746 5744 5748 5749 5748 5747
5833 5828 5824 5819 5816 5814 5809 5804 5798 5794 5790 5787 5783 5778 5776 5774 5773 5771 5768 5766 5765 5763 5762 5761 5760 5759 5759 5757 5756 5756 5756 5755 5754 5753 5752 5751 5749 5749 5744 5741 5743 5745 5747
5837 5832 5829 5823 5819 5817 5812 5807 5800 5795 5792 5789 5786 5781 5777 5775 5772 5770 5768 5767 5767 5765 5763 5762 5760 5759 5759 5757 5756 5755 5755 5754 5753 5752 5752 5750 5748 5746 5745 5742 5741 5741 5744
5837 5832 5828 5823 5819 5816 5813 5809 5802 5797 5794 5791 5787 5784 5780 5776 5773 5771 5769 5768 5768 5766 5763 5763 5760 5760 5758 5757 5756 5755 5754 5754 5751 5750 5751 5751 5750 5749 5747 5744 5742 5740 5742
5838 5834 5831 5826 5822 5818 5814 5810 5804 5799 5796 5793 5789 5786 5782 5780 5778 5774 5773 5770 5769 5768 5766 5763 5761 5759 5758 5758 5756 5756 5755 5753 5751 5751 5750 5749 5750 5749 5748 5745 5741 5737 5738
5838 5835 5832 5829 5825 5821 5816 5813 5807 5801 5798 5795 5791 5787 5784 5781 5779 5776 5772 5771 5769 5769 5766 5763 5761 5760 5758 5757 5756 5755 5753 5752 5751 5750 5749 5748 5749 5749 5748 5746 5743 5737 5732
5838 5835 5832 5829 5827 5824 5820 5815 5810 5804 5800 5796 5793 5790 5786 5783 5779 5776 5773 5770 5769 5767 5765 5763 5761 5759 5758 5756 5754 5754 5752 5750 5749 5748 5746 5746 5747 5747 5746 5744 5743 5741 5735
5836 5834 5832 5830 5826 5824 5820 5814 5810 5804 5800 5797 5794 5790 5787 5784 5780 5776 5774 5771 5768 5765 5763 5761 5760 5758 5757 5755 5753 5752 5751 5749 5747 5747 5746 5744 5743 5743 5743 5743 5741 5739 5735
5836 5834 5831 5827 5824 5820 5818 5814 5810 5805 5801 5798 5793 5790 5787 5784 5780 5777 5774 5771 5768 5766 5763 5761 5759 5757 5755 5754 5752 5750 5749 5747 5745 5744 5743 5742 5742 5740 5740 5739 5737 5736 5733
5829 5829 5826 5822 5820 5817 5814 5811 5808 5805 5802 5798 5793 5789 5785 5782 5779 5777 5773 5771 5767 5765 5763 5760 5757 5755 5754 5752 5750 5749 5747 5746 5744 5743 5741 5740 5738 5736 5736 5735 5734 5733 5732
5821 5820 5817 5816 5814 5812 5810 5807 5805 5803 5800 5796 5792 5787 5784 5780 5778 5775 5772 5769 5766 5763 5761 5758 5756 5754 5753 5750 5749 5747 5745 5743 5742 5741 5739 5738 5736 5734 5732 5732 5730 5728 5726
5813 5812 5810 5809 5808 5807 5805 5803 5801 5799 5797 5792 5788 5785 5782 5778 5775 5772 5769 5767 5764 5762 5758 5756 5754 5752 5750 5748 5745 5744 5742 5740 5738 5737 5736 5734 5731 5729 5728 5728 5726 5724 5721
5807 5806 5805 5803 5802 5801 5799 5798 5796 5794 5792 5788 5784 5781 5778 5774 5771 5769 5766 5763 5760 5758 5755 5753 5751 5749 5747 5742 5739 5739 5739 5737 5735 5733 5732 5731 5728 5725 5722 5720 5718 5716 5715
5801 5800 5799 5798 5797 5797 5795 5792 5791 5789 5787 5784 5780 5777 5774 5770 5768 5766 5763 5760 5757 5755 5752 5750 5747 5745 5741 5737 5735 5733 5735 5734 5731 5730 5729 5729 5727 5724 5722 5718 5714 5712 5708
5795 5794 5794 5793 5794 5793 5791 5789 5787 5783 5781 5778 5775 5773 5770 5767 5764 5760 5758 5756 5754 5752 5749 5746 5744 5741 5737 5732 5730 5729 5730 5730 5728 5726 5725 5723 5721 5719 5716 5715 5712 5710 5706
5790 5790 5790 5789 5787 5786 5785 5782 5779 5777 5773 5772 5770 5768 5765 5762 5758 5755 5753 5752 5750 5747 5745 5742 5739 5737 5733 5728 5726 5723 5727 5726 5724 5722 5720 5718 5716 5711 5709 5708 5706 5704 5702
5784 5783 5783 5782 5780 5779 5778 5774 5772 5770 5768 5767 5765 5764 5761 5758 5754 5750 5748 5747 5745 5742 5741 5738 5735 5733 5730 5725 5721 5718 5724 5722 5721 5719 5716 5711 5709 5705 5702 5703 5701 5698 5697
5776 5776 5775 5773 5772 5771 5769 5766 5765 5764 5763 5762 5760 5757 5755 5753 5750 5746 5743 5740 5739 5736 5733 5731 5730 5728 5725 5721 5717 5714 5718 5718 5717 5716 5714 5710 5702 5698 5696 5696 5696 5693 5691
5766 5767 5765 5764 5764 5762 5760 5758 5757 5758 5757 5755 5752 5750 5748 5747 5745 5740 5737 5734 5732 5729 5726 5724 5723 5723 5720 5716 5712 5709 5708 5709 5710 5709 5709 5704 5696 5692 5690 5689 5687 5685 5683
5755 5756 5756 5755 5755 5755 5753 5750 5750 5750 5748 5746 5744 5742 5741 5739 5737 5734 5730 5727 5725 5725 5723 5721 5719 5718 5716 5711 5705 5703 5701 5700 5701 5702 5698 5694 5689 5686 5685 5682 5680 5678 5679
5744 5745 5745 5745 5745 5745 5744 5742 5742 5741 5739 5737 5735 5734 5732 5731 5729 5727 5725 5723 5721 5720 5718 5716 5714 5712 5710 5707 5703 5700 5697 5692 5692 5692 5689 5685 5682 5681 5680 5679 5677 5676 5675
5733 5735 5735 5735 5736 5736 5735 5735 5733 5732 5730 5729 5728 5726 5725 5724 5721 5719 5718 5716 5715 5714 5710 5710 5708 5705 5703 5699 5694 5694 5693 5692 5690 5686 5685 5684 5683 5680 5678 5677 5675 5673 5670
5723 5724 5725 5726 5727 5727 5726 5726 5725 5724 5722 5720 5719 5720 5719 5717 5715 5712 5709 5704 5704 5700 5697 5694 5693 5695 5690 5687 5684 5682 5680 5679 5677 5677 5681 5679 5678 5677 5675 5672 5669 5666 5663